Terug naar catalogus

STARLINK-5959

ActiefCommunicatieVLEO
NORAD 56454·PAYLOAD·🇺🇸 United States

Gelanceerd May 10, 2023 vanaf Vandenberg Space Force Base

Loading…

Volgende Passages (komende 24 uur)

TLE

VersSource: CelesTrak SupGP

Epoch: Sep 15, 2026, 03:15 UTC

1 56454C 23064G   26258.13590278  .00027807  00000+0  23318-2 0  2587
2 56454  70.0031  26.7880 0003181 267.4428  84.7075 14.98291981    18

Volg STARLINK-5959 in realtime met AllMySat

Download on the App Store